1290991826635,0.000135419
1290991886635,0.000136581
1290991946635,0.000136023
1290992006635,0.000136750
1290992066635,0.000135889
1290995426646,0.000135219
1290995486646,0.000136993
1290995546646,0.000136951
1290995606646,0.000136871
1290995666646,0.000137602
1290999026656,0.000135834
1290999086656,0.000136434
1290999146656,0.000137451
1290999206656,0.000136798
1290999266656,0.000136303
1291002626667,0.000136376
1291002686667,0.000135781
1291002746667,0.000136347
1291002806667,0.000135496
1291002866667,0.000135572
1291006226677,0.000134383
1291006286677,0.000135556
1291006346677,0.000134374
1291006406677,0.000134442
1291006466677,0.000135707
1291009826688,0.000136409
1291009886688,0.000135121
1291009946688,0.000135951
1291010006688,0.000135150
1291010066688,0.000135113
1291010126688,0.000134922
1291010186688,0.000136566
1291010246688,0.000136423
1291010306688,0.000136399
1291010366688,0.000135669
1291010426699,0.000135964
1291010486699,0.000135599
1291010546699,0.000136204
1291010606699,0.000134877
1291010666699,0.000136126
1291010726699,0.000135767
1291010786699,0.000134782
1291010846699,0.000134610
1291010906699,0.000136117
1291010966699,0.000135034
1291011026699,0.000134374
1291011086699,0.000134391
1291011146699,0.000134318
1291011206699,0.000134330
1291011266699,0.000134987
1291011326699,0.000135646
1291011386699,0.000135392
1291011446699,0.000134993
1291011506699,0.000135154
1291011566699,0.000135124
1291011626699,0.000136377
1291011686699,0.000134474
1291011746699,0.000134911
1291011806699,0.000135283
1291011866699,0.000136050
1291011926699,0.000135140
1291011986699,0.000137264
1291012046699,0.000135582
1291012106699,0.000136526
1291012166699,0.000136255
1291012226699,0.000135952
1291012286699,0.000136240
1291012346699,0.000135087
1291012406699,0.000136179
1291012466699,0.000136597
1291012526699,0.000136236
1291012586699,0.000136689
1291012646699,0.000136448
1291012706699,0.000136203
1291012766699,0.000135292
1291012826699,0.000135517
1291012886699,0.000135380
1291012946699,0.000136056
1291013006699,0.000135605
1291013066699,0.000135326
1291013126699,0.000134157
1291013186699,0.000136196
1291013246699,0.000135939
1291013306699,0.000135123
1291013366699,0.000135291
1291013426699,0.000135345
1291013486699,0.000134794
1291013546699,0.000134875
1291013606699,0.000135284
1291013666699,0.000135060
1291013726699,0.000134979
1291013786699,0.000135248
1291013846699,0.000135180
1291013906699,0.000134374
1291013966699,0.000135380
1291014026710,0.000135192
1291014086710,0.000135551
1291014146710,0.000135986
1291014206710,0.000135663
1291014266710,0.000135412
1291014326710,0.000136277
1291014386710,0.000136494
1291014446710,0.000135271
1291014506710,0.000135259
1291014566710,0.000135550
1291014626710,0.000136383
1291014686710,0.000134675
1291014746710,0.000135008
1291014806710,0.000136001
1291014866710,0.000136159
1291014926710,0.000135431
1291014986710,0.000136114
1291015046710,0.000134926
1291015106710,0.000135376
1291015166710,0.000136253
1291015226710,0.000135457
1291015286710,0.000135406
1291015346710,0.000135861
1291015406710,0.000135090
1291015466710,0.000135263
1291015526710,0.000134943
1291015586710,0.000135104
1291015646710,0.000135566
1291015706710,0.000135494
1291015766710,0.000136741
1291015826710,0.000135261
1291015886710,0.000136351
1291015946710,0.000135544
1291016006710,0.000135957
1291016066710,0.000136192
1291016126710,0.000134694
1291016186710,0.000134178
1291016246710,0.000134058
1291016306710,0.000134414
1291016366710,0.000134973
1291016426710,0.000134828
1291016486710,0.000134130
1291016546710,0.000134455
1291016606710,0.000135253
1291016666710,0.000134051
1291016726710,0.000134090
1291016786710,0.000134931
1291016846710,0.000134585
1291016906710,0.000134062
1291016966710,0.000134048
1291017026710,0.000134209
1291017086710,0.000135307
1291017146710,0.000134797
1291017206710,0.000135344
1291017266710,0.000134180
1291017326710,0.000134945
1291017386710,0.000134085
1291017446710,0.000134214
1291017506710,0.000134595
1291017566710,0.000134483
1291017626721,0.000133525
1291017686721,0.000134727
1291017746721,0.000134576
1291017806721,0.000135036
1291017866721,0.000133533
1291017926721,0.000133621
1291017986721,0.000134481
1291018046721,0.000134969
1291018106721,0.000135268
1291018166721,0.000134443
1291018226721,0.000134143
1291018286721,0.000134098
1291018346721,0.000134396
1291018406721,0.000133813
1291018466721,0.000134029
1291018526721,0.000133920
1291018586721,0.000133821
1291018646721,0.000132856
1291018706721,0.000132581
1291018766721,0.000133658
1291018826721,0.000133094
1291018886721,0.000133483
1291018946721,0.000133245
1291019006721,0.000133174
1291019066721,0.000133496
1291019126721,0.000133185
1291019186721,0.000132447
1291019246721,0.000133180
1291019306721,0.000132902
1291019366721,0.000133627
1291019426721,0.000132815
1291019486721,0.000132573
1291019546721,0.000132972
1291019606721,0.000132338
1291019666721,0.000132862
1291019726721,0.000132129
1291019786721,0.000132607
1291019846721,0.000133668
1291019906721,0.000132847
1291019966721,0.000132550
1291020026721,0.000133559
1291020086721,0.000133386
1291020146721,0.000133461
1291020206721,0.000132425
1291020266721,0.000133023
1291020326721,0.000132870
1291020386721,0.000133089
1291020446721,0.000133567
1291020506721,0.000133992
1291020566721,0.000133916
1291020626721,0.000133053
1291020686721,0.000135182
1291020746721,0.000134197
1291020806721,0.000134198
1291020866721,0.000134501
1291024226732,0.000132546
1291024286732,0.000133019
1291024346732,0.000133890
1291024406732,0.000133749
1291024466732,0.000133385
1291027826744,0.000133900
1291027886744,0.000132316
1291027946744,0.000134053
1291028006744,0.000133129
1291028066744,0.000134065
1291031426755,0.000133544
1291031486755,0.000131526
1291031546755,0.000133296
1291031606756,0.000133667
1291031666756,0.000131794
1291035026768,0.000133838
1291035086768,0.000132822
1291035146768,0.000133298
1291035206768,0.000133102
1291035266768,0.000133380
1291038626780,0.000133656
1291038686780,0.000133789
1291038746780,0.000134581
1291038806780,0.000134186
1291038866780,0.000133904
1291042226792,0.000133261
1291042286792,0.000132906
1291042346792,0.000133182
1291042406792,0.000133319
1291042466792,0.000133815
1291045826804,0.000133648
1291045886804,0.000133582
1291045946804,0.000135070
1291046006804,0.000134812
1291046066804,0.000135567
1291049426816,0.000134908
1291049486816,0.000135033
1291049546816,0.000135081
1291049606816,0.000134125
1291049666816,0.000134081
1291053026828,0.000135344
1291053086828,0.000135627
1291053146828,0.000135601
1291053206828,0.000136660
1291053266828,0.000135885
1291056626839,0.000134848
1291056686839,0.000134445
1291056746839,0.000135087
1291056806839,0.000134464
1291056866839,0.000134811
1291060226851,0.000135651
1291060286851,0.000135089
1291060346851,0.000135018
1291060406851,0.000134615
1291060466851,0.000134264
1291063826862,0.000134479
1291063886862,0.000134290
1291063946862,0.000134373
1291064006862,0.000134207
1291064066862,0.000133875
1291067426873,0.000133043
1291067486873,0.000133921
1291067546873,0.000133996
1291067606873,0.000134833
1291067666873,0.000133851
1291071026884,0.000133263
1291071086884,0.000134094
1291071146884,0.000133040
1291071206884,0.000133370
1291071266884,0.000133034
1291074626894,0.000134611
1291074686894,0.000134363
1291074746894,0.000133742
1291074806894,0.000132899
1291074866894,0.000133934
